TimeCDT,TemperatureF,Dew PointF,Humidity,Sea Level PressureIn,VisibilityMPH,Wind Direction,Wind SpeedMPH,Gust SpeedMPH,PrecipitationIn,Events,Conditions,WindDirDegrees,DateUTC
12:15 AM,70.9,66.0,85,29.88,-9999.0,Calm,Calm,-,N/A,,Clear,0,2013-09-10 05:15:00
12:35 AM,69.1,64.8,86,29.89,-9999.0,WNW,5.8,-,N/A,,Unknown,290,2013-09-10 05:35:00
12:55 AM,72.3,66.2,81,29.88,-9999.0,NE,9.2,-,N/A,,Clear,50,2013-09-10 05:55:00
1:15 AM,73.4,65.5,76,29.88,-9999.0,Calm,Calm,-,N/A,,Clear,0,2013-09-10 06:15:00
1:35 AM,70.9,65.5,83,29.88,-9999.0,NNW,3.5,-,N/A,,Clear,340,2013-09-10 06:35:00
1:55 AM,68.5,65.3,89,29.89,-9999.0,Calm,Calm,-,N/A,,Unknown,0,2013-09-10 06:55:00
2:15 AM,66.2,63.7,92,29.89,-9999.0,Calm,Calm,-,N/A,,Unknown,0,2013-09-10 07:15:00
2:35 AM,65.3,63.5,94,29.89,10.0,Calm,Calm,-,N/A,,Clear,0,2013-09-10 07:35:00
2:55 AM,65.3,63.5,94,29.89,10.0,Calm,Calm,-,N/A,,Clear,0,2013-09-10 07:55:00
3:15 AM,65.8,64.0,94,29.90,10.0,Calm,Calm,-,N/A,,Clear,0,2013-09-10 08:15:00
3:35 AM,66.0,64.2,94,29.91,10.0,North,3.5,-,N/A,,Clear,350,2013-09-10 08:35:00
3:55 AM,65.7,64.0,94,29.91,10.0,Calm,Calm,-,N/A,,Scattered Clouds,0,2013-09-10 08:55:00
4:15 AM,64.6,62.6,93,29.90,10.0,Calm,Calm,-,N/A,,Clear,0,2013-09-10 09:15:00
4:35 AM,63.9,62.6,96,29.91,10.0,Calm,Calm,-,N/A,,Clear,0,2013-09-10 09:35:00
4:55 AM,66.0,64.4,94,29.91,10.0,Calm,Calm,-,N/A,,Scattered Clouds,0,2013-09-10 09:55:00
5:15 AM,65.3,63.9,95,29.92,10.0,North,3.5,-,N/A,,Scattered Clouds,350,2013-09-10 10:15:00
5:35 AM,65.5,63.7,94,29.91,10.0,North,3.5,-,N/A,,Scattered Clouds,10,2013-09-10 10:35:00
5:55 AM,65.1,63.7,95,29.91,10.0,Calm,Calm,-,N/A,,Scattered Clouds,0,2013-09-10 10:55:00
6:15 AM,64.9,63.7,96,29.91,10.0,NNE,4.6,-,N/A,,Clear,30,2013-09-10 11:15:00
6:35 AM,65.7,64.4,96,29.91,10.0,Calm,Calm,-,N/A,,Scattered Clouds,0,2013-09-10 11:35:00
6:55 AM,64.9,63.5,95,29.92,10.0,Calm,Calm,-,N/A,,Clear,0,2013-09-10 11:55:00
7:15 AM,64.9,63.7,96,29.94,7.0,Calm,Calm,-,N/A,,Clear,0,2013-09-10 12:15:00
7:35 AM,65.1,63.7,95,29.93,7.0,Calm,Calm,-,N/A,,Clear,0,2013-09-10 12:35:00
7:55 AM,65.7,64.6,96,29.93,7.0,Calm,Calm,-,N/A,,Clear,0,2013-09-10 12:55:00
8:15 AM,67.3,65.7,95,29.94,10.0,Calm,Calm,-,N/A,,Clear,0,2013-09-10 13:15:00
8:35 AM,69.1,66.6,92,29.94,10.0,NNE,3.5,-,N/A,,Clear,20,2013-09-10 13:35:00
8:55 AM,71.1,66.6,86,29.94,10.0,NNE,4.6,-,N/A,,Clear,30,2013-09-10 13:55:00
9:15 AM,72.5,66.9,83,29.94,10.0,NE,5.8,-,N/A,,Clear,50,2013-09-10 14:15:00
9:35 AM,73.6,67.3,81,29.95,10.0,NE,5.8,-,N/A,,Scattered Clouds,50,2013-09-10 14:35:00
9:55 AM,74.5,66.9,77,29.96,-9999.0,Calm,Calm,-,N/A,,Clear,0,2013-09-10 14:55:00
10:15 AM,76.5,66.6,71,29.96,-9999.0,ENE,5.8,-,N/A,,Clear,60,2013-09-10 15:15:00
10:35 AM,77.9,66.6,68,29.97,-9999.0,NE,6.9,-,N/A,,Clear,40,2013-09-10 15:35:00
10:55 AM,78.8,66.9,67,29.97,-9999.0,North,4.6,-,N/A,,Clear,10,2013-09-10 15:55:00
11:15 AM,79.3,66.2,64,29.97,-9999.0,NE,4.6,-,N/A,,Clear,50,2013-09-10 16:15:00
11:35 AM,80.1,65.7,61,29.97,-9999.0,North,5.8,-,N/A,,Clear,10,2013-09-10 16:35:00
11:55 AM,81.3,64.2,56,29.98,-9999.0,NNE,4.6,-,N/A,,Clear,20,2013-09-10 16:55:00
12:15 PM,82.0,64.0,54,29.98,-9999.0,NNE,6.9,-,N/A,,Clear,20,2013-09-10 17:15:00
12:35 PM,83.1,62.2,49,29.98,-9999.0,North,4.6,-,N/A,,Clear,10,2013-09-10 17:35:00
12:55 PM,81.3,60.4,49,29.98,-9999.0,North,5.8,-,N/A,,Clear,10,2013-09-10 17:55:00
1:15 PM,84.4,61.2,45,29.99,-9999.0,NNE,4.6,-,N/A,,Clear,30,2013-09-10 18:15:00
1:35 PM,84.4,60.8,45,29.98,-9999.0,NNW,6.9,-,N/A,,Clear,340,2013-09-10 18:35:00
1:55 PM,84.7,62.2,47,29.98,-9999.0,North,6.9,-,N/A,,Clear,360,2013-09-10 18:55:00
2:15 PM,84.4,63.3,49,29.98,-9999.0,North,8.1,-,N/A,,Clear,360,2013-09-10 19:15:00
2:35 PM,83.3,63.7,51,29.99,-9999.0,North,9.2,-,N/A,,Scattered Clouds,360,2013-09-10 19:35:00
2:55 PM,83.1,63.5,51,29.99,-9999.0,North,5.8,-,N/A,,Scattered Clouds,350,2013-09-10 19:55:00
3:15 PM,83.8,60.4,45,29.99,-9999.0,North,8.1,-,N/A,,Scattered Clouds,360,2013-09-10 20:15:00
3:35 PM,82.9,58.8,44,29.99,-9999.0,North,6.9,-,N/A,,Mostly Cloudy,10,2013-09-10 20:35:00
3:55 PM,83.7,57.9,41,30.00,-9999.0,North,6.9,-,N/A,,Scattered Clouds,360,2013-09-10 20:55:00
4:15 PM,84.2,58.3,41,30.00,-9999.0,NNE,8.1,-,N/A,,Clear,20,2013-09-10 21:15:00
4:35 PM,83.8,58.3,42,30.00,-9999.0,North,9.2,-,N/A,,Clear,10,2013-09-10 21:35:00
4:55 PM,83.1,59.5,45,30.00,-9999.0,NNE,9.2,-,N/A,,Clear,20,2013-09-10 21:55:00
5:15 PM,83.1,56.1,40,30.00,-9999.0,North,6.9,-,N/A,,Clear,10,2013-09-10 22:15:00
5:35 PM,82.8,56.8,41,30.00,-9999.0,NNE,8.1,-,N/A,,Clear,20,2013-09-10 22:35:00
5:55 PM,82.4,57.7,43,30.00,-9999.0,NNE,9.2,-,N/A,,Clear,20,2013-09-10 22:55:00
6:15 PM,81.5,59.2,47,30.00,-9999.0,North,10.4,-,N/A,,Clear,10,2013-09-10 23:15:00
6:35 PM,80.2,59.0,48,30.00,-9999.0,NNE,8.1,-,N/A,,Clear,20,2013-09-10 23:35:00
6:55 PM,78.8,60.8,54,30.00,-9999.0,NNE,5.8,-,N/A,,Clear,20,2013-09-10 23:55:00
7:15 PM,76.3,60.8,59,30.00,-9999.0,North,5.8,-,N/A,,Clear,10,2013-09-11 00:15:00
7:35 PM,73.8,61.7,66,30.00,-9999.0,NNE,3.5,-,N/A,,Clear,20,2013-09-11 00:35:00
7:55 PM,71.6,63.7,76,30.02,-9999.0,North,3.5,-,N/A,,Clear,10,2013-09-11 00:55:00
8:15 PM,70.7,63.9,79,30.02,5.0,Calm,Calm,-,N/A,,Haze,0,2013-09-11 01:15:00
8:35 PM,69.3,63.9,83,30.03,7.0,Calm,Calm,-,N/A,,Clear,0,2013-09-11 01:35:00
8:55 PM,69.1,63.9,83,30.04,7.0,Calm,Calm,-,N/A,,Mostly Cloudy,0,2013-09-11 01:55:00
9:15 PM,68.0,64.2,88,30.05,7.0,Calm,Calm,-,N/A,,Mostly Cloudy,0,2013-09-11 02:15:00
9:35 PM,68.2,64.6,88,30.06,7.0,Calm,Calm,-,N/A,,Overcast,0,2013-09-11 02:35:00
9:55 PM,68.0,64.8,89,30.06,7.0,Calm,Calm,-,N/A,,Overcast,0,2013-09-11 02:55:00
10:15 PM,68.9,65.5,89,30.06,7.0,Calm,Calm,-,N/A,,Overcast,0,2013-09-11 03:15:00
10:35 PM,68.0,65.1,90,30.06,7.0,Calm,Calm,-,N/A,,Mostly Cloudy,0,2013-09-11 03:35:00
10:55 PM,67.3,64.8,92,30.06,7.0,Calm,Calm,-,N/A,,Mostly Cloudy,0,2013-09-11 03:55:00
11:15 PM,67.6,65.3,92,30.07,7.0,Calm,Calm,-,N/A,,Overcast,0,2013-09-11 04:15:00
11:35 PM,67.3,64.9,92,30.07,7.0,Calm,Calm,-,N/A,,Mostly Cloudy,0,2013-09-11 04:35:00
11:55 PM,66.2,64.4,94,30.07,7.0,Calm,Calm,-,N/A,,Scattered Clouds,0,2013-09-11 04:55:00